Regional Weather Roundup
Issued by NWS

Home | Current Version | Previous Version | Graphics & Text | Print | Product List | Glossary On
Versions: 1 2 3 4 5 6 7 8 9 10 11 12 13 14 15 16 17 18 19 20 21 22 23 24 25 26 27 28 29 30 31 32 33 34 35 36 37 38 39 40 41 42 43 44 45 46 47 48 49 50
000
ASUS45 KABQ 011810
RWRNM
WEATHER ROUNDUP FOR NEW MEXICO
NATIONAL WEATHER SERVICE ALBUQUERQUE NM
1200 PM MDT FRI AUG 01 2014

NOTE: "FAIR" MEANS FEW OR NO CLOUDS BELOW 12,000 FEET AGL WITH NO
       SIGNIFICANT WEATHER OR OBSTRUCTIONS TO VISION.

      THIS PRODUCT IS RELEASED AS TWO VERSIONS.  ONE VERSION NEAR
      THE TOP OF THE HOUR CONTAINING PRELIMINARY DATA FROM ALBUQUERQUE
      AND OTHER STATIONS.  A FINAL VERSION WITH ADDITIONAL DATA IS
      ISSUED ABOUT 10 MINUTES AFTER THE HOUR.

NMZ501-503-504-510>518-011900-
NORTHWEST PLATEAU/NORTHCENTRAL MOUNTAINS

CITY           SKY/WX    TMP DP  RH WIND       PRES   REMARKS
FARMINGTON     SUNNY     76  51  41 VRB7      30.24F
6HR MIN TEMP:  64; 6HR MAX TEMP:  77;

LOS ALAMOS     MOSUNNY   64  54  68 E3        30.38F
SANTA FE       MOSUNNY   69  54  58 SE6       30.33F
6HR MIN TEMP:  56; 6HR MAX TEMP:  69;

TAOS           PTSUNNY   64  54  68 CALM      30.38F
ANGEL FIRE     FAIR      63  51  63 CALM      30.45F

$$
NMZ402-403-502-505>509-011900-
WESTCENTRAL MOUNTAINS/SOUTHWEST MOUNTAINS

CITY           SKY/WX    TMP DP  RH WIND       PRES   REMARKS
GALLUP         SUNNY     74  52  46 SW5       30.31F
6HR MIN TEMP:  57; 6HR MAX TEMP:  75;

SILVER CITY    MOSUNNY   73  57  56 S7        30.27F

$$
NMZ407-409-411-412-011900-
SOUTHERN DESERTS

CITY           SKY/WX    TMP DP  RH WIND       PRES   REMARKS
LORDSBURG      FAIR      79  59  50 E3        30.19F
DEMING         CLOUDY    72  63  73 E5        30.21S
6HR MIN TEMP:  64; 6HR MAX TEMP:  72; 6HR PCP: TRACE;

LAS CRUCES     CLOUDY    72  61  69 E6        30.23S
HOLLOMAN AFB   CLOUDY    70  63  78 NW5       30.21F
ALAMOGORDO     PTSUNNY   70  63  78 NW3       30.23F
T OR C         CLOUDY    72  60  66 CALM      30.24S
6HR MIN TEMP:  63; 6HR MAX TEMP:  73;


$$
NMZ519>523-011900-
CENTRAL VALLEYS/CENTRAL HIGHLANDS

CITY           SKY/WX    TMP DP  RH WIND       PRES   REMARKS
ALBUQUERQUE    PTSUNNY   75  54  47 CALM      30.28F
6HR MIN TEMP:  63; 6HR MAX TEMP:  75;

DOUBLE EAGLE   PTSUNNY   70  55  60 CALM      30.31F
MORIARTY ARPT  MOCLDY    67  54  62 S7        30.35F
6HR MIN TEMP:  58; 6HR MAX TEMP:  68;

CLINES CORNERS CLOUDY    65  54  67 SE7       30.38S
6HR MIN TEMP:  55; 6HR MAX TEMP:  65;

BELEN          FAIR      71  55  57 CALM      30.28S
6HR MIN TEMP:  59; 6HR MAX TEMP:  71;

SOCORRO        FAIR      73  57  57 E3        30.26S
6HR MIN TEMP:  62; 6HR MAX TEMP:  74;


$$
NMZ524>526-539-540-011900-
SOUTHCENTRAL MOUNTAINS

CITY           SKY/WX    TMP DP  RH WIND       PRES   REMARKS
RUIDOSO        CLOUDY    59  55  88 SE7       30.40S

$$
NMZ527>531-011900-
NORTHEAST HIGHLANDS/NORTHEAST PLAINS

CITY           SKY/WX    TMP DP  RH WIND       PRES   REMARKS
LAS VEGAS      CLOUDY    64  54  69 SW8       30.38F
6HR MIN TEMP:  52; 6HR MAX TEMP:  65;

RATON          MOSUNNY   68  55  63 CALM      30.33F
6HR MIN TEMP:  57; 6HR MAX TEMP:  68;

CLAYTON        CLOUDY    72  53  51 SW6       30.30S
6HR MIN TEMP:  64; 6HR MAX TEMP:  72; 6HR PCP:  0.03;


$$
NMZ532>537-011900-
EASTCENTRAL PLAINS

CITY           SKY/WX    TMP DP  RH WIND       PRES   REMARKS
TUCUMCARI      CLOUDY    75  53  46 VRB3      30.25R
6HR MIN TEMP:  68; 6HR MAX TEMP:  75;

CANNON AFB     CLOUDY    71  55  55 NW2       30.28R
6HR MIN TEMP:  64; 6HR MAX TEMP:  71; 6HR PCP: TRACE;

CLOVIS AIRPORT NOT AVBL

$$
NMZ028-029-538-011900-
SOUTHEAST PLAINS

CITY           SKY/WX    TMP DP  RH WIND       PRES   REMARKS
ROSWELL        CLOUDY    73  63  70 E8        30.23S
6HR MIN TEMP:  66; 6HR MAX TEMP:  73;

ARTESIA        LGT RAIN  68  66  94 S7        30.23S
CARLSBAD       CLOUDY    73  64  73 E7        30.20F
6HR MIN TEMP:  68; 6HR MAX TEMP:  73; 6HR PCP:  0.01;

HOBBS          MOSUNNY   73  59  60 S8        30.24S


$$


USA.gov is the U.S. government's official web portal to all federal, state and local government web resources and services.